Zurück zum Katalog

WEINA 1A

AktivKommunikationVLEO
NORAD 43169·PAYLOAD·🇨🇳 China

Gestartet Jan 25, 2018 von Xichang Satellite Launch Center

Loading…

Nächste Überflüge (nächste 24 Stunden)

TLE

AktuellSource: Space-Track

Epoche: Sep 14, 2026, 13:59 UTC

1 43169U 18011A   26257.58269314  .00001609  00000-0  12482-3 0  9990
2 43169  34.9967 338.3296 0001978 107.5245 252.5679 15.01291330471560

Verfolge WEINA 1A in Echtzeit mit AllMySat

Download on the App Store